Home > Weather > Heidelberg > Past weeks

Flag for Germany Past Weather in Heidelberg, Baden-Württemberg, Germany — Yesterday and Last 2 Weeks

Now
64 °F

Passing clouds.


Feels Like: 64 °F
Forecast: 63 / 80 °F
Wind: 5 mph from South

Location: Frankfurt-M-Flughafen Airport

Current Time: Jul 29, 2016 at 2:28:46 AM

Latest Report: Jul 29, 2016 at 1:50 AM


Visibility: N/A

Pressure: 29.98 "Hg

Humidity: 94%

Dew Point: 63 °F

Location of HeidelbergLocation

Past Weather in Heidelberg — Graph

°F

Heidelberg Temperature Yesterday

Maximum temperature yesterday: 77 °F (at 3:20 PM)
Minimum temperature yesterday: 61 °F (at 5:50 AM)
Average temperature yesterday: 69 °F

High & Low Weather Summary for the Past Weeks

 TemperatureHumidityPressure
High95 °F (Jul 20, 2:50 PM)100% (Jul 22, 4:50 AM)30.30 "Hg (Jul 22, 4:50 AM)
Low50 °F (Jul 16, 2:50 AM)22% (Jul 20, 6:20 PM)29.89 "Hg (Jul 20, 5:50 PM)
Average71 °F68%30.09 "Hg
* Reported Jul 14 1:20 AM — Jul 29 1:20 AM, Heidelberg, Weather by CustomWeather, © 2016

Note: Actual official high and low records may vary slightly from our data, if they occured in-between our weather recording intervals... More about our weather records

Advertising

Heidelberg Weather History for the Previous 24 Hours

Scroll right to see more
 ConditionsComfort  
Time TempWeatherWind HumidityBarometerVisibility
1:20 AM
Fri, Jul 29
64 °FPassing clouds.6 mph94%29.98 "HgN/A
12:50 AM64 °FPassing clouds.7 mph94%29.98 "HgN/A
12:20 AM64 °FPartly cloudy.5 mph94%29.98 "HgN/A
11:50 PM
Thu, Jul 28
64 °FPassing clouds.6 mph94%29.98 "HgN/A
11:20 PM64 °FPassing clouds.2 mph94%29.98 "HgN/A
10:50 PM64 °FPartly cloudy.2 mph94%29.98 "HgN/A
10:20 PM64 °FPassing clouds.2 mph94%29.98 "HgN/A
9:50 PM64 °FBroken clouds.5 mph94%29.98 "HgN/A
9:20 PM64 °FScattered showers. Broken clouds.5 mph100%29.98 "HgN/A
8:50 PM64 °FSprinkles. Broken clouds.7 mph100%29.98 "Hg4 mi
8:20 PM68 °FScattered showers. Partly sunny.6 mph88%29.95 "HgN/A
7:50 PM70 °FRain showers. Broken clouds.10 mph78%29.98 "HgN/A
7:20 PM75 °FScattered showers. Partly sunny.10 mph57%29.95 "HgN/A
6:50 PM75 °FScattered showers. Partly sunny.12 mph54%29.95 "HgN/A
6:20 PM77 °FPartly sunny.10 mph51%29.95 "HgN/A
5:50 PM77 °FPartly sunny.9 mph54%29.95 "HgN/A
5:20 PM77 °FBroken clouds.10 mph51%29.98 "HgN/A
4:50 PM77 °FBroken clouds.13 mph51%29.98 "HgN/A
4:20 PM77 °FPartly sunny.9 mph51%29.98 "HgN/A
3:50 PM77 °FBroken clouds.9 mph54%29.98 "HgN/A
3:20 PM77 °FBroken clouds.12 mph51%30.01 "HgN/A
2:50 PM75 °FBroken clouds.9 mph54%30.01 "HgN/A
2:20 PM75 °FBroken clouds.9 mph54%30.01 "HgN/A
1:50 PM73 °FBroken clouds.8 mph57%30.04 "HgN/A
1:20 PM75 °FBroken clouds.8 mph57%30.04 "HgN/A
12:50 PM75 °FPartly sunny.10 mph54%30.04 "HgN/A
12:20 PM75 °FBroken clouds.10 mph50%30.04 "HgN/A
11:50 AM73 °FBroken clouds.9 mph57%30.04 "HgN/A
11:20 AM75 °FBroken clouds.8 mph54%30.04 "HgN/A
10:50 AM72 °FBroken clouds.6 mph65%30.04 "HgN/A
10:20 AM72 °FBroken clouds.6 mph61%30.04 "HgN/A
9:50 AM70 °FBroken clouds.5 mph64%30.04 "HgN/A
9:20 AM70 °FBroken clouds.6 mph69%30.04 "HgN/A
8:50 AM66 °FBroken clouds.5 mph78%30.04 "HgN/A
8:20 AM66 °FPassing clouds.5 mph78%30.04 "HgN/A
7:50 AM64 °FPassing clouds.3 mph83%30.04 "HgN/A
7:20 AM64 °FPassing clouds.5 mph83%30.04 "HgN/A
6:50 AM63 °FSunny.3 mph88%30.04 "Hg10 mi
6:20 AM61 °FPassing clouds.3 mph94%30.04 "HgN/A
5:50 AM61 °FClear.2 mph94%30.04 "Hg10 mi
5:20 AM63 °FClear.2 mph88%30.04 "Hg10 mi
4:50 AM63 °FClear.1 mph88%30.04 "Hg10 mi
4:20 AM64 °FClear.3 mph78%30.04 "Hg10 mi
3:50 AM64 °FClear.2 mph78%30.04 "Hg10 mi
3:20 AM63 °FClear.6 mph88%30.04 "Hg10 mi
2:50 AM63 °FClear.5 mph88%30.04 "Hg10 mi
2:20 AM63 °FClear.3 mph88%30.04 "Hg10 mi
Weather by CustomWeather, © 2016

See weather overviewHow to use our weather pages